Location: Unspecified
(42.7170°S, 0.0000°E)
Time: 02:29:03
(UTC+00:00)

N. Korean satellite - Pass Details

Date: 26 May 2019
Orbit: 455 x 510 km, 97.2° (Epoch: 14 June)

Event Time Altitude Azimuth Distance (km) Brightness Sun altitude
Rises 04:30:20 0° 42° (NE) 2,483 10.8 -29.8°
Reaches altitude 10° 04:32:37 10° 56° (NE) 1,622 9.9 -29.4°
Enters shadow 04:35:16 23° 106° (ESE) 1,036 8.8 -28.9°
